STARLINK-36617, 67634

Orbit data source: Space-Track

STARLINK-36617, 67634 is a payload satellite owned by SpaceX/Seattle (US) in LEO that was launched on Fri, 30 Jan 2026 UTC via an FALCON 9 launch vehicle from the Air Force Eastern Test Range (AFETR). Payload-class satellites include a variety of spacecraft equipped with specific instruments for various scientific and technological missions. These include communications satellites like Starlink; space stations such as the ISS; scientific satellites like the Hubble; Earth observation satellites from companies like Planet Labs, Umbra, and HawkEye 360; GPS; miniature CubeSats for education and research; and military/defense satellites.

Loading next visibility...
Identifier
67634, 2026-020T
Orbit
LEO
Country
Flag of USUS
Related business
Manufacturer
SpaceX/Seattle
Mission
Operational spacecraft
Bus & Motor
STARLINK V2MO, Unknown motor
Mass
575 kg wet, ~530 kg dry
Launch date (UTC)
2026-01-30 (2 months ago)
Launch vehicle
FALCON 9
Launch site
Air Force Eastern Test Range (AFETR)
Object type
Payload
Rocket body
Debris
Shape & HBR
Unknown shape, 17.7 m
Radar Cross Section
RCS unknown

Expand to show TLE details & history
Last TLE update: 5 hours ago

TLE from 5 hours ago
0 STARLINK-36617
1 67634U 26020T   26104.81959772  .00005001  00000-0  18634-3 0  9998
2 67634  43.0027 296.2158 0001579 279.3007  80.7666 15.28423528 11631
Epoch: 2026-04-14T19:40Z
TLE epoch observation values (Epoch: 2026-04-14T19:40:13.243Z)
Latitude
-0.00003°
Longitude
158.17022°
Altitude
480.126 km
Speed
7.627 km/s
True Right ascension
19h 44m 51s
True Declination
0° 00' 00"
Sunlit
Object was in daylight at epoch
Visualization orbit readout
Latitude
Unknown
Longitude
Unknown
Altitude
Unknown
Speed
Unknown
Apparent Right ascension
Unknown
Apparent Declination
Unknown
Sunlit
N/A
Visualization observer readout
Local Sidereal Time
07:04:47
Azimuth
Unknown
Elevation
Unknown
Doppler factor
Unknown
Orbital elements
Apogee altitude
483.553 km
Perigee altitude
481.387 km
Semi-major axis
6,860.607 km
Eccentricity
0.00016
Inclination
43.0027°
RAAN
296.2158°
Arg. of periapsis
279.3007°
True anomaly
80.78446°
Mean anomaly
80.7666°
Eccentric anomaly
80.77553°
Mean motion
3.81944 °/min
Orbital period
94.25 mins
BSTAR
0.00018634
Loading maneuver chart data...
Computing Atmospheric mass density...
Loading historical data...
Loading historical data...
Loading historical data...
Loading historical data...
Loading historical data...
Loading historical data...
Loading historical data...

Documentation

Showing up to 5 results
|